"Pseudo-MPEC" for C15HNJ2

Created 2019 Oct 11 15:07:14 UT using Find_Orb

Click here for an explanation of pseudo-MPECs

 
 Astrometry: 
     C15HNJ2  C2019 10 10.18628 00 14 10.71 +40 05 08.7    ~AA7q 21.1 GVNEOCPG96
     C15HNJ2  C2019 10 10.19235 00 14 15.67 +40 05 37.5    ~AA7q 21.1 GVNEOCPG96
     C15HNJ2  C2019 10 10.19839 00 14 20.62 +40 06 06.7    ~AA7q 21.2 GVNEOCPG96
     C15HNJ2  C2019 10 10.20445 00 14 25.53 +40 06 35.8    ~AA7q 21.7 GVNEOCPG96
     C15HNJ2 KC2019 10 10.37984300 16 50.64 +40 19 40.8    ~AA9q 20.6 GVNEOCPH01
     C15HNJ2 KC2019 10 10.38343000 16 53.71 +40 19 55.8    ~AA9q 20.4 GVNEOCPH01
     C15HNJ2 KC2019 10 10.39569000 17 04.27 +40 20 47.6    ~AA9q 21.0 GVNEOCPH01
     C15HNJ2 KC2019 10 10.40036600 17 08.33 +40 21 07.4    ~AA9q 20.6 GVNEOCPH01
     C15HNJ2 KC2019 10 11XcAstrometryV.lc`redacted;wYy36e*/D6[5Mow$*qCpuk2S/iL01
     C15HNJ2 pC2019 10 11;UR!RI4clickQ6$pA4n1o)^cQ`rL++Z:NupZQ]?.tDXoXM'here0L01
     C15HNJ2 IC2019 10 11dEk'!BAsoMXOforA`$kA/HXOVRMh!_;'fFeqexplanation'f9I9L01
     C15HNJ2  C2019 10 11.23531 00 30 45.32 +41 25 01.3    ~AB67 21.5 GVNEOCPI52
     C15HNJ2  C2019 10 11.23698 00 30 46.82 +41 25 09.0    ~AB67       VNEOCPI52
     C15HNJ2  C2019 10 11.23864 00 30 48.36 +41 25 16.0    ~AB67       VNEOCPI52
     C15HNJ2  C2019 10 11.24031 00 30 49.95 +41 25 24.6    ~AB67       VNEOCPI52

Station data:
(G96) Mt. Lemmon Survey  (N32.442754 W110.788720)  US/Arizona.  Observers T.
   A. Pruyne, B. M. Africano, E. J. Christensen, G. A. Farneth, D. C. Fuls,
   A. R. Gibbs, A. D. Grauer, H. Groeller, J. A. Johnson, R. A. Kowalski, S.
   M. Larson, G. J. Leonard, D. Rankin, R. L. Seaman, F. C. Shelly. 1.5-m
   reflector + 10K CCD.
(H01) Magdalena Ridge Observatory, Socorro  (N33.984833 W107.189333)  US/New
   Mexico.  Observers W. H. Ryan, E. V. Ryan. Measurer W. H. Ryan. 2.4-m
   f/8.9 reflector + CCD.
(I52) Steward Observatory, Mt. Lemmon Station  (N32.442547 W110.788920)
   US/Arizona.  Observers T. A. Pruyne, B. M. Africano, E. J. Christensen, G.
   A. Farneth, D. C. Fuls, A. R. Gibbs, A. D. Grauer, H. Groeller, J. A.
   Johnson, R. A. Kowalski, S. M. Larson, G. J. Leonard, D. Rankin, R. L.
   Seaman, F. C. Shelly. 1.0-m reflector + CCD.
(L01) Višnjan Observatory, Tičan  (N45.290900 E13.749300)  Croatia.
   Observers K. Korlević, E. Pettarin. Measurer E. Pettarin. 1.0-m f/2.9
   reflector + CCD.

Orbital elements:  C15HNJ2
   Perihelion 2019 Oct 31.797034 +/- 0.171 TT = 19:07:43 (JD 2458788.297034)
Epoch 2019 Oct 11.0 TT = JDT 2458767.5   Earth MOID: 0.0232   AutoNEOCP
M 352.99936299 +/- 0.07             (J2000 ecliptic)
n   0.33661708 +/- 0.00615          Peri.  185.86746 +/- 0.41
a   2.04665799 +/- 0.0249           Node   215.59491 +/- 0.16
e   0.5040393 +/- 0.00625           Incl.    5.69073 +/- 0.10
P   2.93                   H 26.0   G  0.15   U  9.3  
q 1.01506186 +/- 0.00046    Q 3.07825412 +/- 0.0509
From 15 observations 2019 Oct. 10-11 (25.3 hr); mean residual 0".44
Residuals in arcseconds: 
191010 G96  .23+  .25+    191010 H01  .01-  .02-    191011 L01  .54+  .05+    
191010 G96  .01-  .25-    191010 H01  .22+  .09+    191011 I52  1.0+  .46+    
191010 G96  .05-  .09-    191010 H01  .47+  .26+    191011 I52  .00   .42+    
191010 G96  .72-  .03-    191011 L01  .22+  .52-    191011 I52  .48-  .26-    
191010 H01  .01+  .17+    191011 L01  .93-  .93-    191011 I52  .51-  .61+    

Ephemerides (geocentric):
Date (UTC) HH   RA              Dec         delta   r     elong  mag " sig PA
---- -- -- --  -------------   -----------  ------ ------ -----  --- ---- ---
2019 10 11 15  00 37 32.731   +41 53 35.71  .05527 1.0438 144.5 21.2 5.11  69
2019 10 11 16  00 38 17.982   +41 56 39.36  .05515 1.0437 144.5 21.2 5.80  69
2019 10 11 17  00 39 03.501   +41 59 42.54  .05503 1.0436 144.5 21.2 6.52  69
2019 10 11 18  00 39 49.290   +42 02 45.23  .05492 1.0435 144.5 21.2 7.27  69
2019 10 11 19  00 40 35.350   +42 05 47.43  .05480 1.0434 144.5 21.2 8.07  70
2019 10 11 20  00 41 21.682   +42 08 49.11  .05468 1.0432 144.5 21.2 8.90  70
2019 10 11 21  00 42 08.287   +42 11 50.25  .05457 1.0431 144.5 21.2 9.76  70
2019 10 11 22  00 42 55.166   +42 14 50.84  .05445 1.0430 144.4 21.2 10.7  70
2019 10 11 23  00 43 42.322   +42 17 50.87  .05434 1.0429 144.4 21.2 11.6  70
2019 10 12 00  00 44 29.753   +42 20 50.30  .05422 1.0428 144.4 21.2 12.6  70
2019 10 12 01  00 45 17.463   +42 23 49.13  .05411 1.0427 144.4 21.2 13.6  71
2019 10 12 02  00 46 05.451   +42 26 47.33  .05400 1.0426 144.4 21.2 14.7  71
2019 10 12 03  00 46 53.720   +42 29 44.90  .05388 1.0425 144.4 21.2 15.8  71
2019 10 12 04  00 47 42.269   +42 32 41.79  .05377 1.0423 144.4 21.2 16.9  71
2019 10 12 05  00 48 31.101   +42 35 38.01  .05366 1.0422 144.3 21.2 18.1  71
2019 10 12 06  00 49 20.215   +42 38 33.52  .05355 1.0421 144.3 21.2 19.3  71
2019 10 12 07  00 50 09.614   +42 41 28.32  .05344 1.0420 144.3 21.2 20.6  72
2019 10 12 08  00 50 59.298   +42 44 22.37  .05333 1.0419 144.3 21.2 21.9  72
2019 10 12 09  00 51 49.268   +42 47 15.66  .05322 1.0418 144.3 21.2 23.3  72
2019 10 12 10  00 52 39.525   +42 50 08.17  .05311 1.0417 144.3 21.2 24.6  72
2019 10 12 11  00 53 30.070   +42 52 59.88  .05300 1.0415 144.2 21.2 26.1  72
2019 10 12 12  00 54 20.904   +42 55 50.76  .05289 1.0414 144.2 21.2 27.6  72
2019 10 12 13  00 55 12.028   +42 58 40.80  .05278 1.0413 144.2 21.2 29.1  73
2019 10 12 14  00 56 03.442   +43 01 29.97  .05267 1.0412 144.2 21.1 30.7  73
2019 10 12 15  00 56 55.148   +43 04 18.26  .05256 1.0411 144.2 21.1 32.3  73
2019 10 12 16  00 57 47.146   +43 07 05.63  .05245 1.0410 144.1 21.1 33.9  73
2019 10 12 17  00 58 39.438   +43 09 52.08  .05235 1.0409 144.1 21.1 35.6  73
2019 10 12 18  00 59 32.023   +43 12 37.57  .05224 1.0408 144.1 21.1 37.4  73
2019 10 12 19  01 00 24.903   +43 15 22.08  .05214 1.0407 144.1 21.1 39.2  74
2019 10 12 20  01 01 18.078   +43 18 05.59  .05203 1.0406 144.1 21.1 41.0  74
2019 10 12 21  01 02 11.549   +43 20 48.08  .05192 1.0404 144.0 21.1 42.9  74
2019 10 12 22  01 03 05.317   +43 23 29.53  .05182 1.0403 144.0 21.1 44.9  74
2019 10 12 23  01 03 59.383   +43 26 09.90  .05172 1.0402 144.0 21.1 46.9  74
2019 10 13 00  01 04 53.746   +43 28 49.18  .05161 1.0401 144.0 21.1 48.9  74
2019 10 13 01  01 05 48.407   +43 31 27.35  .05151 1.0400 144.0 21.1 51.0  75
2019 10 13 02  01 06 43.367   +43 34 04.37  .05141 1.0399 143.9 21.1 53.1  75
2019 10 13 03  01 07 38.627   +43 36 40.23  .05130 1.0398 143.9 21.1 55.3  75
2019 10 13 04  01 08 34.187   +43 39 14.89  .05120 1.0397 143.9 21.1 57.5  75
2019 10 13 05  01 09 30.047   +43 41 48.34  .05110 1.0396 143.9 21.1 59.8  75
2019 10 13 06  01 10 26.207   +43 44 20.55  .05100 1.0395 143.8 21.1 62.2  75
2019 10 13 07  01 11 22.669   +43 46 51.50  .05090 1.0394 143.8 21.1 64.6  76
2019 10 13 08  01 12 19.432   +43 49 21.15  .05080 1.0393 143.8 21.1 67.0  76
2019 10 13 09  01 13 16.497   +43 51 49.49  .05070 1.0391 143.8 21.1 69.5  76
2019 10 13 10  01 14 13.863   +43 54 16.48  .05060 1.0390 143.7 21.1 72.1  76
2019 10 13 11  01 15 11.532   +43 56 42.10  .05051 1.0389 143.7 21.1 74.7  76
2019 10 13 12  01 16 09.502   +43 59 06.33  .05041 1.0388 143.7 21.1 77.3  76
2019 10 13 13  01 17 07.775   +44 01 29.13  .05031 1.0387 143.6 21.1 80.0  77
2019 10 13 14  01 18 06.350   +44 03 50.49  .05021 1.0386 143.6 21.1 82.8  77